Location: Balaclava NSW 2575, Australia
(34.4510°S, 150.4953°E)
Time: 16:09:55
(UTC+10:00)

A-11 Canister half - Pass Details

Date: 15 June 2021
Orbit: 1513 x 1687 km, 47.2° (Epoch: 26 July)

Event Time Altitude Azimuth Distance (km) Brightness Sun altitude
Rises 19:58:09 0° 261° (W) 4,744 12.5 -37.0°
Reaches altitude 10° 20:01:30 10° 253° (WSW) 3,786 11.7 -37.7°
Enters shadow 20:10:09 39° 189° (S) 2,260 9.8 -39.4°
